FENGYUN 1C DEB, 31157

Orbit data source: Space-Track

FENGYUN 1C DEB, 31157 is space debris in SSO originally from a launch on Mon, 10 May 1999 UTC launched from the Taiyaun Space Center, China (TSC). Fengyun 1C debris stems from the Chinese weather satellite Fengyun-1C, which was intentionally destroyed by a Chinese anti-satellite missile in 2007. This event dramatically increased the amount of space debris, with thousands of trackable fragments posing hazards to satellites and human spaceflight. The Fengyun 1C debris cloud has become a focal point in discussions about space sustainability and the need for international regulations to prevent the creation of new debris.

Loading next visibility...
Identifier
31157, 1999-025BHK
Orbit
SSO
Country
Flag of CNCN / PRC
Related business
Manufacturer
Unknown
Mission
Spacecraft
Bus & Motor
Unknown
Mass
Unknown
Launch date (UTC)
1999-05-10 (27 years ago)
Launch vehicle
Unknown
Launch site
Taiyaun Space Center, China (TSC)
Object type
Payload
Rocket body
Debris
Shape & HBR
Unknown shape, 0.1 m
Radar Cross Section
Medium (>0.1 m² and <1 m²)

Expand to show TLE details & history
Last TLE update: 2 weeks ago

TLE from 2 weeks ago
0 FENGYUN 1C DEB
1 31157U 99025BHK 26148.20458417  .00000399  00000-0  18689-3 0  9990
2 31157  98.4945 130.6730 0099525 200.4474 159.2709 14.22778424993509
Epoch: 2026-05-28T04:54Z
TLE epoch observation values (Epoch: 2026-05-28T04:54:36.072Z)
Latitude
0.00007°
Longitude
171.27002°
Altitude
885.963 km
Speed
7.375 km/s
True Right ascension
08h 42m 41s
True Declination
0° 00' 00"
Sunlit
Object was in daylight at epoch
Visualization orbit readout
Latitude
Unknown
Longitude
Unknown
Altitude
Unknown
Speed
Unknown
Apparent Right ascension
Unknown
Apparent Declination
Unknown
Sunlit
N/A
Visualization observer readout
Local Sidereal Time
02:42:49
Azimuth
Unknown
Elevation
Unknown
Doppler factor
Unknown
Orbital elements
Apogee altitude
884.687 km
Perigee altitude
741.545 km
Semi-major axis
7,191.253 km
Eccentricity
0.00995
Inclination
98.4945°
RAAN
130.673°
Arg. of periapsis
200.4474°
True anomaly
159.66992°
Mean anomaly
159.2709°
Eccentric anomaly
159.47087°
Mean motion
3.55907 °/min
Orbital period
101.15 mins
BSTAR
0.00018689
Loading maneuver chart data...
Computing Atmospheric mass density...

Documentation

Showing up to 5 results
|